Location: Laguna de la Cañada del Gallo
(40.3974°N, 5.2096°W)
Time: 12:03:14
(UTC+00:00)

Cosmos 1697 Rocket - Pass Details

Date: 18 April 2024
Orbit: 832 x 843 km, 71.0° (Epoch: 26 May)

Event Time Altitude Azimuth Distance (km) Brightness Sun altitude
Exits shadow 22:00:17 70° 261° (W) 898 2.8 -29.1°
Maximum altitude 22:00:40 73° 294° (WNW) 883 2.8 -29.1°
Drops below altitude 10° 22:06:21 10° 20° (NNE) 2,469 5.5 -29.8°
Sets 22:08:49 0° 22° (NNE) 3,408 6.2 -30.1°
